CAPE
0 0 0 0 0 0 0 0 0 0 0 0 0 0 0 0 0 0 241 360 630 774 1414 1255 1387 1271 1133 1024 941 898 934 944 778 714 588 395 90 94 142 27 5 5 10 8 16 23 2 7 4
0 0 0 0 0 0 0 0 0 0 0 0 0 0 0 0 60 234 574 467 694 1061 1523 1151 1316 1457 1195 1004 876 854 791 740 655 487 372 326 264 444 155 50 133 415 26 2 8 5 4 5 2
0 0 0 0 0 0 0 0 0 0 0 0 0 0 0 0 0 20 39 338 836 1095 1315 1126 1307 1406 1239 1079 920 833 838 749 574 441 287 370 395 623 469 238 494 266 10 0 4 6 6 0 0
0 0 0 0 0 0 0 0 0 0 0 0 0 0 0 0 0 0 1 619 992 1056 1130 1072 1108 1225 1302 1178 1163 874 848 795 783 590 597 324 314 556 343 385 214 14 0 0 9 6 0 0 0
0 0 0 0 0 0 0 0 0 0 0 0 0 0 0 0 0 0 2 424 964 1021 1090 1115 1001 978 1076 1360 1251 1167 984 901 756 761 607 624 431 214 492 331 10 0 0 5 15 0 0 0 0
0 0 0 0 0 0 0 0 0 0 0 0 0 0 0 0 0 0 1 67 661 866 947 1023 841 726 825 838 1062 1146 1114 1026 967 771 755 759 524 167 262 136 0 0 0 1 6 0 0 0 0
0 0 0 0 0 0 0 0 0 0 0 0 0 0 0 0 0 0 0 16 74 491 440 510 766 706 676 560 439 846 852 924 878 765 736 665 509 260 303 100 17 0 0 5 3 0 0 0 0
0 0 0 0 0 0 0 0 0 0 0 0 0 0 0 0 0 0 0 0 2 44 153 330 386 488 721 740 457 183 428 796 907 816 682 680 431 312 324 92 34 0 0 0 0 0 0 0 0
0 0 0 0 0 0 0 0 0 0 0 0 0 0 0 0 0 0 0 0 0 3 8 1 44 329 361 356 432 274 167 92 691 893 717 600 582 419 353 148 4 0 0 0 0 0 0 0 0
0 0 0 0 0 0 0 0 0 0 0 0 0 0 0 0 0 0 0 0 0 0 0 0 1 2 147 191 270 304 347 378 788 907 761 731 617 501 422 154 5 4 0 0 0 0 0 0 0
0 0 0 0 0 0 0 0 0 0 0 0 0 0 0 0 0 0 0 0 0 0 0 0 0 0 0 2 65 91 131 89 309 593 619 588 561 449 392 267 79 24 0 0 0 0 0 0 0
0 0 0 0 0 0 0 0 0 0 0 0 0 0 0 0 0 0 0 0 0 0 0 0 0 0 0 0 1 64 37 112 270 163 402 456 464 424 391 307 130 68 27 0 0 0 0 0 0
0 0 0 0 0 0 0 0 0 0 0 0 0 0 0 0 0 0 0 0 0 0 0 0 0 0 0 0 0 0 8 63 211 250 187 183 273 328 179 205 100 86 40 2 0 3 0 0 0
0 0 0 0 0 0 0 0 0 0 0 0 0 0 0 0 0 0 0 0 0 0 0 0 0 0 0 0 0 0 0 8 30 153 187 166 181 115 76 86 68 67 52 21 1 1 0 0 0
0 0 0 0 0 0 0 0 0 0 0 0 0 0 0 0 0 0 0 0 0 0 0 0 0 0 0 0 0 0 0 0 0 0 19 152 127 101 55 79 77 43 62 20 4 12 0 0 0
0 0 0 0 0 0 0 0 0 0 0 0 0 0 0 0 0 0 0 0 0 0 0 0 0 0 0 1 0 0 0 0 0 0 0 0 38 111 74 53 90 75 30 12 13 17 17 0 0
0 0 0 0 0 0 0 0 0 0 0 0 0 0 0 0 0 0 0 0 0 0 0 0 0 0 0 0 1 0 0 0 0 0 0 1 3 64 111 94 77 67 31 25 16 8 25 15 2
0 0 0 0 0 0 0 0 0 0 0 0 0 0 0 0 0 0 0 0 0 0 0 0 0 0 0 0 0 0 0 0 0 0 0 6 20 56 84 115 83 60 44 37 38 9 1 39 60
0 0 0 0 0 0 0 0 0 0 0 0 0 0 0 0 0 0 0 0 0 0 0 0 0 0 0 0 0 0 0 0 0 0 0 0 3 40 70 100 108 61 30 16 12 2 0 9 53
0 0 0 0 0 0 0 0 0 0 0 0 0 0 0 0 0 0 0 0 0 0 0 0 0 0 0 0 14 7 4 4 0 0 0 1 1 17 29 53 73 63 33 6 1 1 0 6 16
0 0 0 0 0 0 0 0 0 0 0 0 0 0 0 0 0 0 0 0 0 0 0 0 0 0 0 1 34 39 51 33 13 20 25 0 1 1 8 4 4 14 19 3 2 0 0 0 0
0 0 0 0 1 0 0 0 0 0 0 0 0 0 0 0 0 0 0 0 0 0 0 0 0 0 0 0 37 53 24 6 19 38 16 6 2 8 6 8 6 3 14 8 0 0 1 0 0
0 0 0 0 2 2 0 1 0 0 0 0 0 0 0 0 0 0 0 0 0 0 0 0 0 0 0 35 78 83 27 12 24 29 15 24 22 21 1 2 1 2 0 0 0 0 0 0 0
0 0 0 0 1 0 0 0 0 1 1 0 0 23 7 0 0 0 0 0 0 0 0 5 7 4 52 71 118 85 57 54 28 27 34 44 29 29 4 1 0 0 0 0 0 0 0 3 2
0 0 0 0 0 0 0 0 0 1 1 1 4 2 2 2 0 0 1 0 39 48 70 92 100 44 65 79 93 70 88 66 73 55 42 31 12 9 10 6 1 1 0 0 0 0 0 26 24
0 0 0 0 0 0 0 0 0 0 2 0 2 0 0 3 0 2 1 16 61 110 105 121 106 110 98 97 86 94 81 82 67 40 43 19 8 8 10 3 3 1 1 9 7 3 16 28 22
1 1 1 0 0 0 0 0 0 0 0 1 2 0 1 1 1 3 2 3 0 21 42 84 111 130 125 101 94 67 91 67 16 12 34 23 6 3 2 3 2 0 9 15 18 15 26 23 24
1 1 0 0 0 0 0 0 0 0 0 0 3 4 2 0 2 2 3 2 0 2 1 1 0 13 1 0 2 1 0 0 0 0 1 1 3 1 5 2 1 5 8 18 12 18 23 25 15
0 0 0 0 0 0 0 0 0 0 0 1 3 2 0 0 0 2 2 2 2 1 2 3 4 5 4 3 4 2 3 2 0 0 1 1 1 1 0 0 0 0 2 1 8 20 14 14 2
0 0 0 0 0 0 0 0 0 1 3 2 0 0 0 0 0 0 0 0 1 0 1 1 0 2 0 2 0 0 0 0 0 0 0 0 0 0 0 0 0 0 0 0 0 1 0 0 0
CIN
-0 -0 -0 -0 -0 -0 -0 -0 -0 -0 -0 -0 -0 -0 -0 -0 -0 -0 -264 -175 -108 -116 -43 -41 -23 -20 -21 -21 -19 -10 -4 -3 -5 -1 -10 -30 -145 -118 -103 -301 -368 -51 -58 -0 -0 -32 -0 -3 -0
-0 -0 -0 -0 -0 -0 -0 -0 -0 -0 -0 -0 -0 -0 -0 -0 -84 -145 -60 -116 -83 -32 -7 -32 -21 -4 -8 -15 -15 -11 -6 -5 -4 -11 -26 -36 -40 -14 -77 -211 -148 -48 -289 -3 -1 -0 -0 -0 -0
-0 -0 -0 -0 -0 -0 -0 -0 -0 -0 -0 -0 -0 -0 -0 -0 -0 -208 -394 -166 -63 -21 -9 -7 -2 -2 -2 -6 -7 -7 -2 -3 -9 -9 -35 -16 -5 -0 -16 -75 -39 -82 -294 -0 -1 -0 -0 -0 -0
-0 -0 -0 -0 -0 -0 -0 -0 -0 -0 -0 -0 -0 -0 -0 -0 -0 -0 -0 -84 -38 -28 -3 -4 -4 -3 -1 -3 -5 -8 -5 -4 -2 -3 -3 -16 -6 -1 -5 -25 -73 -256 -0 -0 -2 -2 -0 -0 -0
-0 -0 -0 -0 -0 -0 -0 -0 -0 -0 -0 -0 -0 -0 -0 -0 -0 -0 -0 -87 -21 -23 -8 -1 -4 -8 -3 -2 -3 -4 -5 -4 -6 -3 -4 -2 -4 -8 -2 -11 -77 -0 -0 -105 -289 -0 -0 -0 -0
-0 -0 -0 -0 -0 -0 -0 -0 -0 -0 -0 -0 -0 -0 -0 -0 -0 -0 -0 -222 -30 -11 -27 -3 -5 -7 -7 -7 -3 -3 -3 -2 -2 -3 -2 -1 -3 -14 -8 -63 -0 -0 -0 -0 -0 -0 -0 -0 -0
-0 -0 -0 -0 -0 -0 -0 -0 -0 -0 -0 -0 -0 -0 -0 -0 -0 -0 -0 -171 -126 -24 -20 -24 -13 -12 -9 -16 -20 -3 -4 -3 -4 -5 -3 -3 -2 -14 -7 -76 -181 -0 -0 -0 -0 -0 -0 -0 -0
-0 -0 -0 -0 -0 -0 -0 -0 -0 -0 -0 -0 -0 -0 -0 -0 -0 -0 -0 -0 -30 -117 -81 -35 -18 -18 -10 -6 -20 -74 -23 -4 -1 -3 -4 -3 -3 -3 -7 -66 -198 -0 -0 -0 -0 -0 -0 -0 -0
-0 -0 -0 -0 -0 -0 -0 -0 -0 -0 -0 -0 -0 -0 -0 -0 -0 -0 -0 -0 -0 -46 -133 -0 -79 -23 -28 -38 -37 -42 -88 -137 -8 -2 -4 -4 -0 -0 -2 -32 -54 -0 -0 -0 -0 -0 -0 -0 -0
-0 -0 -0 -0 -0 -0 -0 -0 -0 -0 -0 -0 -0 -0 -0 -0 -0 -0 -0 -0 -0 -0 -0 -0 -0 -19 -48 -47 -48 -45 -26 -38 -2 -0 -2 -1 -3 -2 -0 -24 -33 -71 -0 -0 -0 -0 -0 -0 -0
-0 -0 -0 -0 -0 -0 -0 -0 -0 -0 -0 -0 -0 -0 -0 -0 -0 -0 -0 -0 -0 -0 -0 -0 -0 -0 -0 -20 -75 -68 -102 -39 -38 -4 -4 -3 -5 -7 -5 -0 -18 -14 -0 -0 -0 -0 -0 -0 -0
-0 -0 -0 -0 -0 -0 -0 -0 -0 -0 -0 -0 -0 -0 -0 -0 -0 -0 -0 -0 -0 -0 -0 -0 -0 -0 -0 -0 -30 -63 -70 -56 -35 -67 -28 -13 -4 -3 -1 -0 -28 -3 -35 -0 -0 -0 -0 -0 -0
-0 -0 -0 -0 -0 -0 -0 -0 -0 -0 -0 -0 -0 -0 -0 -0 -0 -0 -0 -0 -0 -0 -0 -0 -0 -0 -0 -0 -0 -0 -111 -59 -54 -35 -65 -79 -61 -32 -36 -25 -80 -20 -12 -42 -0 -80 -0 -0 -0
-0 -0 -0 -0 -0 -0 -0 -0 -0 -0 -0 -0 -0 -0 -0 -0 -0 -0 -0 -0 -0 -0 -0 -0 -0 -0 -0 -0 -0 -0 -0 -176 -89 -42 -47 -63 -69 -66 -164 -120 -50 -29 -22 -40 -12 -65 -0 -0 -0
-0 -0 -0 -0 -0 -0 -0 -0 -0 -0 -0 -0 -0 -0 -0 -0 -0 -0 -0 -0 -0 -0 -0 -0 -0 -0 -0 -0 -0 -0 -0 -0 -0 -15 -111 -31 -30 -53 -73 -53 -62 -89 -71 -62 -66 -34 -0 -0 -0
-0 -0 -0 -0 -0 -0 -0 -0 -0 -0 -0 -0 -0 -0 -0 -0 -0 -0 -0 -0 -0 -0 -0 -0 -0 -0 -0 -0 -0 -0 -0 -0 -0 -0 -0 -0 -95 -48 -54 -81 -73 -81 -98 -91 -92 -34 -38 -0 -0
-0 -0 -0 -0 -0 -0 -0 -0 -0 -0 -0 -0 -0 -0 -0 -0 -0 -0 -0 -0 -0 -0 -0 -0 -0 -0 -0 -0 -35 -0 -0 -0 -0 -0 -0 -88 -126 -82 -37 -62 -69 -65 -71 -57 -71 -84 -25 -46 -103
-0 -0 -0 -0 -0 -0 -0 -0 -0 -0 -0 -0 -0 -0 -0 -0 -0 -0 -0 -0 -0 -0 -0 -0 -0 -0 -0 -0 -11 -0 -0 -0 -0 -0 -0 -185 -157 -134 -81 -48 -61 -79 -50 -61 -64 -63 -23 -29 -51
-0 -0 -0 -0 -0 -0 -0 -0 -0 -0 -0 -0 -0 -0 -0 -0 -0 -0 -0 -0 -0 -0 -0 -0 -0 -0 -0 -0 -0 -0 -0 -0 -0 -0 -0 -0 -0 -129 -103 -63 -62 -77 -62 -68 -49 -7 -0 -33 -56
-0 -0 -0 -0 -0 -0 -0 -0 -0 -0 -0 -0 -0 -0 -0 -0 -0 -0 -0 -0 -0 -0 -0 -0 -0 -0 -0 -0 -106 -103 -38 -39 -0 -0 -0 -0 -0 -85 -99 -66 -57 -65 -64 -55 -0 -0 -0 -16 -39
-0 -0 -0 -0 -0 -0 -0 -0 -0 -0 -0 -0 -0 -0 -0 -0 -0 -0 -0 -0 -0 -0 -0 -0 -0 -0 -0 -7 -79 -69 -61 -81 -79 -130 -137 -0 -0 -0 -0 -3 -0 -42 -21 -10 -11 -0 -0 -0 -27
-0 -0 -0 -0 -0 -0 -0 -0 -0 -0 -0 -0 -0 -0 -0 -0 -0 -0 -0 -0 -0 -0 -0 -0 -0 -0 -0 -7 -72 -52 -92 -90 -124 -110 -133 -83 -0 -0 -1 -3 -0 -1 -19 -19 -0 -0 -88 -0 -0
-0 -0 -0 -0 -0 -0 -0 -0 -0 -0 -0 -0 -0 -0 -0 -0 -0 -0 -0 -0 -0 -0 -0 -0 -0 -0 -0 -109 -63 -44 -82 -106 -96 -71 -76 -67 -53 -48 -5 -1 -0 -0 -0 -0 -0 -0 -0 -0 -0
-0 -0 -0 -0 -0 -0 -0 -0 -0 -0 -0 -0 -0 -1 -0 -0 -0 -0 -0 -0 -0 -0 -0 -32 -28 -12 -98 -126 -62 -56 -90 -79 -71 -49 -44 -52 -33 -19 -5 -0 -0 -0 -0 -0 -0 -0 -0 -16 -15
-0 -0 -0 -0 -0 -0 -0 -0 -0 -0 -0 -0 -0 -0 -0 -0 -0 -0 -0 -0 -79 -89 -97 -109 -78 -77 -111 -102 -81 -91 -65 -64 -39 -33 -30 -29 -36 -28 -24 -0 -0 -0 -0 -0 -6 -0 -27 -33 -64
-0 -0 -0 -0 -0 -0 -0 -0 -0 -0 -0 -0 -0 -0 -0 -0 -0 -0 -0 -49 -72 -110 -96 -115 -83 -79 -88 -77 -67 -54 -79 -84 -60 -29 -18 -8 -16 -12 -16 -7 -11 -4 -9 -12 -7 -28 -35 -29 -27
-0 -1 -0 -0 -0 -0 -0 -0 -0 -0 -0 -0 -0 -0 -0 -0 -0 -0 -0 -0 -30 -121 -76 -61 -59 -41 -38 -34 -43 -55 -46 -40 -65 -28 -6 -1 -17 -14 -8 -13 -4 -1 -19 -19 -13 -9 -18 -22 -25
-0 -0 -0 -0 -0 -0 -0 -0 -0 -0 -0 -0 -0 -0 -0 -0 -0 -0 -0 -0 -0 -0 -0 -0 -0 -58 -13 -0 -0 -0 -0 -0 -0 -34 -2 -0 -0 -0 -0 -0 -19 -22 -5 -3 -4 -15 -18 -19 -21
-0 -0 -0 -0 -0 -0 -0 -0 -0 -0 -0 -0 -0 -0 -0 -0 -0 -0 -0 -0 -0 -0 -0 -0 -0 -0 -0 -0 -0 -0 -0 -0 -0 -0 -0 -0 -0 -0 -0 -0 -0 -1 -2 -5 -6 -5 -14 -8 -2
-0 -0 -0 -0 -0 -0 -0 -0 -0 -0 -0 -0 -0 -0 -0 -0 -0 -0 -0 -0 -0 -0 -0 -0 -0 -0 -0 -0 -0 -0 -0 -0 -0 -0 -0 -0 -0 -0 -0 -0 -0 -0 -0 -0 -0 -0 -0 -0 -0
Wind_Speed
15 13 12 13 19 20 23 22 19 18 16 16 19 16 17 18 15 14 22 15 19 3 5 7 2 2 3 2 3 4 5 5 6 7 8 10 10 11 12 14 16 17 16 17 18 18 19 20 20
12 11 12 14 21 24 24 20 18 17 18 21 18 18 17 17 19 22 18 21 16 5 2 3 4 4 2 4 3 3 3 4 5 6 7 7 9 9 10 12 15 15 15 15 16 17 17 19 20
11 12 15 17 21 25 24 20 17 17 17 17 16 17 18 20 22 23 24 25 12 6 4 2 1 3 4 2 5 4 4 4 4 5 5 6 6 7 9 9 11 13 14 14 14 15 15 16 17
11 13 16 21 23 22 21 18 16 18 18 17 18 16 15 16 23 25 28 21 11 8 5 4 3 2 2 3 1 6 6 6 6 5 5 4 4 4 6 8 8 9 11 13 13 13 14 13 14
11 12 19 22 24 21 19 17 17 20 20 21 21 19 19 18 23 24 23 19 14 10 9 6 5 6 3 2 2 2 7 8 9 9 7 5 4 5 4 5 7 7 8 11 12 12 12 11 12
12 13 20 24 24 20 20 21 21 21 22 23 22 24 21 18 22 24 21 19 18 13 10 8 7 8 9 7 3 0 2 8 10 11 10 8 7 5 2 3 4 5 6 7 9 11 10 10 10
14 16 22 21 22 21 19 19 20 22 22 22 22 23 22 22 24 24 21 19 18 18 15 10 10 9 10 10 9 7 5 6 10 11 11 10 9 6 2 1 3 4 4 4 6 7 9 9 9
14 16 19 20 23 24 19 18 19 20 22 23 20 24 23 23 26 25 22 20 19 20 20 19 14 12 12 13 12 9 7 11 11 12 13 11 10 8 4 3 3 3 3 3 3 4 6 7 9
15 20 22 21 20 21 19 20 19 20 23 23 21 24 25 27 29 29 27 24 23 21 21 23 21 19 14 13 14 12 11 11 12 12 12 13 12 10 7 7 5 5 4 4 4 4 5 6 7
17 22 23 20 19 22 23 22 25 24 24 25 29 31 34 33 32 33 32 31 28 27 25 23 23 23 20 18 16 18 18 15 13 12 12 13 13 12 11 10 7 7 7 6 7 7 7 7 9
18 24 21 21 21 23 26 29 24 27 31 25 28 30 29 32 38 39 36 34 33 31 29 27 25 25 24 24 19 18 19 16 15 15 13 12 13 14 12 12 11 11 10 11 10 10 10 11 11
23 21 22 23 23 27 29 29 31 29 33 32 30 31 37 39 38 38 40 39 37 35 33 30 26 24 25 23 23 21 19 18 15 14 12 11 12 12 14 14 13 14 13 13 13 13 13 15 15
23 24 24 26 30 32 31 34 34 35 39 36 37 36 36 36 37 35 35 36 37 38 36 32 29 28 26 26 24 22 20 19 18 15 12 13 12 11 12 15 15 16 16 16 16 16 17 17 18
21 24 29 28 30 30 33 34 30 32 31 32 33 35 34 33 34 34 33 35 35 37 38 34 32 31 29 28 26 24 22 20 21 19 19 17 15 14 13 15 16 17 18 18 18 19 19 20 20
22 28 28 26 26 27 28 35 31 30 32 35 37 37 36 37 37 33 33 33 35 36 37 37 35 31 31 29 28 27 24 22 23 20 19 20 18 17 15 15 14 16 18 19 21 21 22 22 22
24 24 29 25 27 27 27 38 29 31 33 39 41 43 44 46 40 36 34 35 34 36 37 36 34 33 32 32 31 30 29 27 26 25 24 25 23 21 22 19 19 19 20 18 20 22 23 25 25
24 29 29 31 27 28 28 40 32 38 47 48 44 44 45 45 40 37 36 35 36 35 36 37 36 35 34 34 33 32 31 32 31 30 29 29 29 27 25 25 24 22 19 20 19 22 25 27 27
26 28 28 31 28 34 40 50 45 42 44 47 45 44 44 44 43 40 38 36 36 35 34 35 37 36 35 35 35 35 34 35 34 33 32 31 30 29 27 27 27 24 23 22 24 25 23 25 30
22 26 30 31 33 36 36 49 49 45 41 44 42 40 40 42 39 35 36 36 36 36 36 34 37 38 35 36 36 37 37 35 35 35 35 33 32 32 30 30 27 26 24 23 23 26 28 27 24
23 28 31 31 27 32 40 50 48 37 34 33 34 36 37 38 38 36 34 33 34 36 38 37 35 36 36 35 35 34 33 34 34 32 33 34 34 33 32 30 27 25 26 24 23 24 25 28 26
25 27 30 31 33 31 36 41 32 30 29 30 31 36 40 39 37 35 33 31 31 36 38 38 36 34 34 34 33 32 31 32 32 33 34 34 34 32 31 29 27 25 26 27 22 23 26 26 27
27 20 24 28 32 35 26 36 31 29 32 36 40 41 40 37 34 32 32 29 29 31 29 33 34 32 31 31 34 34 35 35 33 33 32 32 30 29 28 27 24 24 22 21 22 22 26 30 26
21 21 25 26 28 31 23 24 28 31 35 38 39 37 35 32 30 30 30 28 27 26 26 28 29 31 29 29 31 32 33 32 30 29 30 29 28 25 25 24 23 22 21 22 22 20 21 25 27
21 28 28 20 20 21 12 7 7 14 15 16 15 10 20 22 24 27 28 26 26 25 27 27 26 25 27 26 28 29 30 31 30 30 29 27 25 23 23 20 19 20 20 20 21 21 24 24 22
17 23 20 17 17 18 13 12 11 16 14 14 12 15 21 27 28 27 22 6 13 28 27 23 20 21 22 22 24 24 27 28 28 27 27 26 25 25 23 20 18 17 18 18 21 22 25 26 22
17 15 14 16 16 14 11 9 9 16 14 16 21 23 21 23 24 18 25 7 16 24 22 22 20 17 18 18 21 23 25 27 27 25 26 26 23 21 17 17 15 15 12 15 9 21 26 20 15
14 14 14 15 14 11 11 9 10 14 10 13 12 9 6 7 20 9 11 12 13 15 11 19 19 17 15 12 16 20 26 22 20 21 19 18 18 14 11 13 15 15 15 12 11 12 15 18 21
15 13 13 14 11 11 9 8 3 4 2 5 1 5 4 5 11 5 4 8 7 11 13 11 11 10 10 12 13 8 11 6 6 7 7 8 10 14 14 16 15 17 19 19 19 20 20 24 25
12 12 14 13 12 11 8 10 5 9 13 12 12 11 8 8 10 12 13 5 6 7 7 8 10 12 9 3 0 2 3 5 5 6 8 9 9 10 12 13 13 14 15 18 22 24 25 27 22
13 14 13 13 12 12 12 12 11 15 15 19 18 17 22 20 7 17 10 11 12 11 6 6 4 9 6 1 6 6 8 10 8 7 7 8 10 11 11 12 13 13 13 14 17 18 18 22 21
Wind_Direction
299 302 304 300 285 289 282 288 291 292 293 292 290 293 295 294 300 306 311 329 312 35 107 119 91 273 287 334 1 23 26 29 30 33 42 58 64 70 72 79 87 85 72 69 70 63 65 72 68
299 297 301 292 282 278 282 287 286 290 291 289 288 291 291 294 295 294 310 308 319 345 22 109 112 111 278 286 308 332 359 16 12 20 28 46 65 73 73 77 84 84 72 65 63 62 65 73 75
298 297 286 284 281 278 284 287 285 290 296 293 293 293 291 291 290 291 294 293 323 339 324 331 34 93 109 287 287 302 319 336 357 3 20 30 60 77 89 76 69 71 71 64 65 66 61 64 76
295 295 297 281 279 283 287 291 289 289 293 298 294 293 298 310 295 294 287 296 306 313 306 301 302 343 75 110 293 287 295 304 315 334 348 16 20 62 96 84 60 49 60 71 68 60 58 49 54
301 304 283 281 280 285 287 292 291 287 289 290 291 289 292 299 306 303 302 295 294 301 294 291 284 290 311 38 123 281 288 291 295 299 308 327 346 347 73 80 64 43 53 72 74 66 53 42 44
297 301 284 278 280 289 291 287 289 288 290 291 290 286 287 303 310 308 303 299 290 293 288 288 288 286 289 296 309 323 297 290 290 289 292 297 305 323 78 78 49 44 45 67 71 73 56 33 35
290 292 283 285 287 291 294 300 290 287 288 288 292 287 289 290 305 308 305 301 296 288 285 281 283 286 284 288 292 294 296 295 290 289 289 291 293 297 295 334 2 25 40 54 59 63 62 43 22
292 294 290 290 285 289 302 303 303 298 293 295 295 287 286 289 297 304 307 300 295 288 284 281 281 283 285 284 286 292 290 291 290 288 285 288 288 288 277 282 316 334 343 356 5 32 39 37 26
293 285 285 288 289 294 304 303 307 306 297 296 296 290 290 293 293 292 294 294 292 288 284 280 279 279 279 284 284 286 288 285 282 284 285 283 283 280 277 277 286 304 305 309 321 336 346 0 12
286 281 284 293 295 293 298 301 300 301 299 296 292 288 286 287 288 287 285 283 284 284 282 279 278 277 278 278 282 283 284 286 284 282 284 281 281 277 275 276 277 290 293 293 297 303 311 329 331
288 282 289 294 298 300 297 296 301 298 292 297 295 294 294 290 284 282 282 281 278 281 282 279 275 274 275 274 277 281 285 285 283 281 282 281 280 276 273 277 276 284 287 287 287 291 296 302 310
283 291 293 295 297 298 295 298 295 293 293 295 295 295 291 288 286 284 279 277 276 276 277 278 275 271 270 273 273 278 281 282 286 284 280 275 277 275 273 273 274 279 283 283 282 284 289 291 297
284 289 294 294 293 292 293 291 292 292 290 291 291 291 291 291 289 288 285 281 276 272 273 275 274 270 267 268 271 272 277 280 282 284 283 275 271 269 271 272 274 277 281 280 278 279 283 287 292
291 292 292 295 294 294 292 294 297 298 299 296 295 292 293 293 291 289 287 283 278 273 270 272 272 269 266 263 265 267 272 277 278 280 282 282 280 276 271 270 272 277 278 279 279 276 279 283 287
295 292 296 298 301 297 301 293 292 298 299 295 294 292 292 293 291 288 288 285 280 275 271 268 269 267 263 261 261 262 266 269 270 279 285 283 284 282 279 273 268 269 274 275 280 276 277 280 284
294 296 291 299 301 302 302 290 298 304 302 296 294 292 289 291 288 287 287 285 283 276 270 267 266 266 261 259 260 261 262 266 267 271 282 283 281 281 281 281 278 276 274 273 272 275 274 276 280
298 288 293 297 304 302 300 293 300 301 297 293 295 294 291 290 288 287 287 285 280 277 270 266 263 263 261 259 259 259 260 263 266 271 278 281 279 280 279 279 282 277 275 275 272 273 274 274 276
290 293 298 297 303 301 296 290 298 304 300 296 296 295 292 291 288 289 287 285 277 275 272 266 263 261 261 259 258 259 260 263 266 270 275 279 279 278 279 280 280 277 274 273 272 272 269 274 274
301 300 299 302 304 303 303 297 301 306 303 299 298 296 295 294 295 292 287 283 276 273 271 268 263 259 258 257 255 257 259 262 265 268 272 276 279 280 280 279 278 275 272 272 269 269 268 269 272
305 303 303 308 315 311 308 302 306 309 310 308 306 301 299 298 294 291 288 284 279 275 272 268 265 259 255 255 255 259 261 263 266 270 273 276 278 280 280 279 278 273 272 272 271 266 267 268 270
307 307 308 309 317 316 315 309 314 318 320 317 309 304 301 298 294 292 290 288 286 281 272 266 264 259 254 253 255 256 261 265 267 270 274 278 280 279 278 278 278 273 271 269 262 261 260 263 271
310 324 320 318 319 315 328 313 317 321 320 316 310 307 304 300 295 292 291 292 291 288 276 266 263 259 253 250 253 253 258 261 267 272 277 282 282 280 278 278 276 273 269 270 265 263 264 266 265
326 333 322 321 317 313 332 324 321 325 324 319 311 310 312 304 303 295 293 293 293 290 279 268 263 258 252 250 252 254 259 264 269 274 277 281 284 280 279 278 276 272 270 270 269 263 263 265 268
328 311 298 328 282 293 197 171 207 284 279 279 272 257 295 286 269 260 272 292 290 289 280 271 262 255 250 250 251 255 260 264 267 271 275 280 283 282 282 279 276 273 270 272 270 267 265 270 270
338 298 290 276 267 317 210 215 224 281 285 286 276 285 301 322 303 278 268 194 308 285 275 267 256 250 249 249 254 256 261 265 268 271 274 279 281 281 282 280 281 271 267 269 272 270 268 273 274
241 228 230 266 249 230 189 194 224 283 272 291 314 309 297 305 307 260 277 47 322 253 257 245 248 249 249 251 255 263 268 269 270 271 273 277 278 284 287 284 289 289 254 277 267 271 268 278 283
211 201 198 219 209 199 169 182 155 295 280 294 301 313 286 304 319 281 176 240 222 193 234 227 232 243 249 255 265 273 274 271 269 272 274 276 282 282 282 286 288 285 284 283 289 283 284 286 287
184 186 192 185 184 172 183 156 209 275 253 294 53 66 39 23 21 5 240 184 208 213 213 218 228 240 248 261 262 276 306 302 293 304 292 291 290 285 290 285 295 289 284 283 284 287 291 287 288
173 180 184 187 187 180 188 146 141 135 125 114 109 99 93 51 42 44 53 66 238 204 180 175 191 191 198 234 85 8 329 344 347 4 351 340 325 320 320 312 322 317 309 295 287 287 289 287 300
164 168 173 182 173 164 158 140 153 139 128 110 106 99 91 95 28 21 66 67 69 72 124 165 161 154 144 131 44 36 30 29 24 15 351 328 344 342 335 334 341 338 329 310 300 298 309 296 312